User: anonymous   Login
Location: Unspecified
(0.0000°N, 0.0000°E)
Time: 23:51:59
(UTC+00:00)
Language:

SDA-1680 - Orbit

View from above orbital plane
View from above orbital plane
View from above satellite
View from above satellite

Ground track
Ground track

The orbit is defined by the following mean orbital elements,

1 65990U          26145.53770486 +.00000000 +00000-0 +73890-4 0 00001
2 65990  81.3017 232.5936 0002952 251.4249 108.6587 13.85227105    05
Epoch (UTC): 25 May 2026 12:54:17
Eccentricity: 0.0002952
inclination: 81.3017°
perigee height: 943 km
apogee height: 948 km
right ascension of ascending node: 232.5936°
argument of perigee: 251.4249°
revolutions per day: 13.85227105
mean anomaly at epoch: 108.6587°

The dashed part of the orbit path shows where the satellite is in the earth's shadow,  

DLR